This is the latest recevied weather packets stored in our database for station/object K7GFH-13. If no packets are shown the sender has not sent any weather packets the latest 10 day(s).
| Time | Temp. | Humidity | Pressure | Rain* | Wind** | Luminosity | Snow |
|---|---|---|---|---|---|---|---|
| 1777855212 | 31.11° C | 27% | 1009.7 hPa | 0 mm | - | 281 W/m² | - |
| 1777854308 | 31.11° C | 27% | 1009.4 hPa | 0 mm | - | 321 W/m² | - |
| 1777853405 | 31.11° C | 28% | 1009.5 hPa | 0 mm | - | 363 W/m² | - |
| 1777852503 | 31.11° C | 28% | 1009.6 hPa | 0 mm | - | 405 W/m² | - |
| 1777851602 | 31.11° C | 25% | 1009.7 hPa | 0 mm | - | 445 W/m² | - |
| 1777850702 | 31.11° C | 25% | 1009.8 hPa | 0 mm | - | 481 W/m² | - |
| 1777849800 | 31.67° C | 24% | 1009.9 hPa | 0 mm | - | 518 W/m² | - |
| 1777848896 | 31.67° C | 24% | 1010.2 hPa | 0 mm | - | 547 W/m² | - |
| 1777847993 | 31.11° C | 24% | 1010.5 hPa | 0 mm | - | 578 W/m² | - |
| 1777847090 | 31.67° C | 25% | 1010.5 hPa | 0 mm | - | 602 W/m² | - |
| 1777846189 | 31.11° C | 25% | 1010.8 hPa | 0 mm | - | 628 W/m² | - |
| 1777845285 | 31.11° C | 27% | 1011 hPa | 0 mm | - | 648 W/m² | - |
| 1777844383 | 30° C | 29% | 1011.2 hPa | 0 mm | - | 667 W/m² | - |
| 1777843481 | 30° C | 30% | 1011.1 hPa | 0 mm | - | 681 W/m² | - |
| 1777842576 | 30° C | 30% | 1011.4 hPa | 0 mm | - | 694 W/m² | - |
| 1777841671 | 30° C | 32% | 1011.7 hPa | 0 mm | - | 703 W/m² | - |
| 1777840767 | 29.44° C | 31% | 1011.8 hPa | 0 mm | - | 709 W/m² | - |
| 1777839865 | 29.44° C | 31% | 1011.8 hPa | 0 mm | - | 715 W/m² | - |
| 1777838964 | 29.44° C | 32% | 1011.9 hPa | 0 mm | - | 714 W/m² | - |
| 1777838060 | 28.89° C | 33% | 1012.1 hPa | 0 mm | - | 712 W/m² | - |
| 1777837160 | 28.33° C | 34% | 1012.3 hPa | 0 mm | - | 707 W/m² | - |
| 1777836260 | 27.78° C | 34% | 1012.6 hPa | 0 mm | - | 698 W/m² | - |
| 1777835355 | 27.78° C | 36% | 1012.5 hPa | 0 mm | - | 685 W/m² | - |
| 1777834452 | 27.22° C | 36% | 1012.8 hPa | 0 mm | - | 670 W/m² | - |
| 1777833550 | 26.11° C | 37% | 1013 hPa | 0 mm | - | 652 W/m² | - |
* Rain latest hour (hover to see other rain measurements)
** Current wind speed in m/s (hover to see current wind gust speed)